Wind_Speed
15 15 15 15 16 15 15 15 15 14 14 14 13 13 12 12 12 13 13 14 16 16 14 12 11 10 11 11 11 11 10 9 8 4 6 12 15 17 21 24 23 24 24 24 26 27 28 27 25 22 20 17 15 13 13 12 11 12 10 8 6 7 9 9 8 7 5 3 2 2 6 7 8 9 10 10 10 11 11 11 10 12 12 13 15 16 17 21
17 17 16 16 17 16 16 16 15 15 14 14 13 13 13 13 12 12 13 14 15 16 15 14 12 11 11 11 11 11 10 10 9 6 11 15 14 14 20 25 24 23 24 24 24 25 26 26 25 23 21 19 16 16 15 13 12 12 10 8 7 9 10 9 8 6 4 4 3 3 6 7 7 7 7 8 8 8 8 9 12 13 13 14 16 17 17 20
18 18 18 17 17 17 17 17 16 16 15 14 13 13 13 13 12 12 12 13 14 15 16 15 14 13 12 12 11 11 11 10 10 10 14 14 12 13 16 22 24 22 22 21 21 22 22 23 24 24 23 21 19 18 17 15 13 12 11 8 8 11 10 8 7 5 4 4 4 4 6 7 8 7 6 5 5 5 4 5 8 11 11 13 15 16 16 19
19 19 18 18 18 18 17 17 17 16 15 14 13 12 12 13 12 12 12 12 13 14 15 16 16 14 13 13 11 11 11 11 12 12 14 14 12 13 14 20 22 21 22 23 23 23 23 25 26 25 25 24 23 21 19 17 14 13 11 8 10 12 11 9 8 6 5 5 6 5 6 8 8 8 7 5 3 5 6 4 6 7 8 9 11 13 15 17
19 19 19 18 17 17 17 17 17 16 15 15 14 13 13 13 13 13 12 12 13 14 14 15 16 15 14 14 12 11 11 11 12 12 13 14 14 13 14 18 20 22 24 24 26 26 26 28 28 28 27 26 25 23 20 17 14 13 10 9 12 13 11 10 8 7 6 7 8 6 5 6 8 7 7 7 5 5 8 5 6 9 7 7 7 9 13 16
19 19 19 18 17 17 17 17 17 16 15 15 15 15 14 14 14 14 14 13 13 13 14 14 15 16 15 15 13 12 11 11 11 10 11 13 15 14 14 15 18 23 26 26 26 27 28 30 30 30 29 27 25 22 19 17 16 14 10 10 14 14 12 11 9 8 7 8 9 7 5 7 8 7 8 8 7 8 9 7 7 10 10 8 6 7 10 15
20 20 20 19 18 17 17 18 17 17 17 17 17 17 17 16 16 16 15 15 14 14 14 14 15 15 16 15 15 14 12 13 13 11 11 12 14 15 14 15 18 22 27 28 27 27 28 29 31 30 29 28 26 23 20 19 18 16 11 11 15 15 13 13 10 8 8 9 9 8 7 8 8 5 6 8 8 9 8 7 7 8 10 10 8 7 8 13
20 20 20 20 19 18 18 18 18 18 18 18 19 19 18 18 18 17 17 16 16 16 14 14 14 14 15 15 16 15 13 15 14 12 13 13 13 15 13 14 18 21 25 27 26 25 25 26 28 29 30 29 27 25 23 21 21 18 11 12 17 16 14 15 13 10 8 9 9 9 8 7 6 5 5 6 7 7 8 7 6 6 8 10 10 8 10 14
21 20 20 20 20 19 18 19 19 19 18 19 19 19 19 19 19 18 17 17 17 17 16 15 14 13 14 15 16 15 14 16 15 14 16 16 15 15 14 13 16 20 23 26 26 25 25 24 24 27 28 27 27 26 25 24 22 18 11 13 19 18 16 17 15 12 9 10 11 10 9 7 6 7 7 7 7 6 7 7 6 6 7 9 10 11 12 14
20 20 20 20 20 20 19 19 19 19 19 19 19 19 19 20 19 18 17 17 17 17 17 16 15 14 13 14 15 15 15 17 17 17 17 18 19 18 16 14 14 18 22 24 26 26 23 19 18 21 24 25 27 27 27 26 22 18 14 16 21 20 19 19 17 14 11 12 12 11 9 9 8 9 10 9 8 6 6 7 6 6 7 8 11 13 14 14
20 20 20 20 20 20 20 20 20 20 20 20 20 19 19 20 19 18 17 17 18 18 18 17 16 15 13 13 15 16 17 18 19 20 20 20 21 20 20 17 14 17 20 23 25 24 20 17 16 18 22 25 28 28 28 26 22 19 17 19 23 23 21 22 20 16 13 13 11 9 9 11 14 13 12 10 8 6 5 6 6 6 7 8 10 14 16 17
20 21 21 21 21 21 21 21 20 20 20 20 20 19 20 20 19 19 18 18 19 19 18 18 17 16 14 13 15 16 17 18 20 22 21 21 21 22 21 19 17 16 20 22 22 21 19 18 17 17 21 24 27 27 26 26 24 23 20 20 25 25 23 24 22 17 15 14 10 8 10 15 17 12 11 11 10 8 7 7 7 8 8 8 10 13 17 18
22 22 23 23 23 23 23 23 22 21 20 20 20 20 20 20 19 19 19 19 20 19 19 19 18 16 15 14 14 16 15 18 21 23 21 21 22 23 22 21 19 18 21 21 20 20 20 19 18 18 20 22 24 24 23 24 27 26 22 21 24 25 25 24 22 18 16 14 11 8 12 18 16 12 12 13 12 11 9 8 9 10 10 9 10 12 16 19
23 24 24 24 24 25 25 25 25 24 23 22 21 20 20 20 19 19 19 20 20 20 19 19 17 15 15 15 14 15 15 17 21 23 22 22 23 24 23 22 20 20 23 24 22 21 21 21 20 20 22 23 24 23 21 22 26 29 26 24 25 24 26 26 22 20 17 14 12 10 14 19 17 13 13 14 13 11 9 8 10 11 11 11 10 11 15 19
23 24 25 25 25 26 27 27 26 26 25 24 22 21 20 20 18 18 19 20 20 20 19 18 16 15 15 17 15 14 15 17 20 22 23 24 24 25 25 23 21 21 23 25 24 23 23 23 23 24 24 24 24 22 22 23 25 29 25 23 27 27 25 26 24 22 18 15 14 13 16 17 17 17 16 14 13 11 10 10 10 12 12 12 12 12 13 16
24 25 27 27 27 28 28 28 27 25 24 24 23 22 20 19 18 17 19 20 20 18 17 16 15 13 13 15 15 13 14 17 19 21 24 25 25 26 26 25 24 23 25 26 25 24 25 25 25 25 24 25 26 24 22 22 23 27 25 21 27 30 27 26 26 24 21 17 18 17 17 16 14 15 17 16 14 12 13 12 11 12 13 13 13 13 13 15
25 26 27 28 28 28 29 28 26 25 24 23 23 21 20 19 17 17 18 19 18 16 15 14 12 11 10 11 12 10 11 16 19 21 24 25 26 26 27 26 25 25 27 28 27 27 27 27 27 26 26 26 28 26 22 20 22 26 26 23 27 30 29 28 27 24 23 21 20 21 22 20 14 13 15 15 15 14 15 14 14 14 13 14 14 14 14 15
25 26 27 28 28 28 28 27 25 24 23 22 21 21 20 18 16 16 17 16 15 14 12 11 10 8 7 9 10 10 10 14 19 22 24 25 25 25 26 26 24 27 30 30 30 29 29 30 29 28 30 29 30 32 26 22 26 29 27 26 27 29 29 30 26 22 23 24 22 22 23 23 18 15 15 15 15 16 16 15 15 16 16 14 14 15 14 14
25 27 28 29 28 28 27 25 24 24 23 22 20 19 19 17 15 14 14 13 12 11 9 9 9 7 7 11 12 11 10 12 17 22 25 25 24 25 27 26 25 27 32 33 32 32 32 32 33 34 36 36 35 38 35 28 30 33 31 28 28 31 31 31 28 21 19 22 24 25 25 23 19 17 17 16 17 17 17 18 18 18 18 17 15 15 15 14
26 27 28 28 28 26 24 24 24 23 23 21 19 18 16 14 12 8 9 11 9 9 9 9 9 7 8 12 13 13 10 9 12 19 24 26 24 25 26 27 26 28 32 35 34 34 33 35 40 41 41 41 38 37 37 35 31 29 29 28 27 31 33 31 29 24 19 18 22 25 26 24 21 19 18 17 18 20 20 21 21 20 19 18 16 14 14 14
26 26 27 27 26 24 23 23 23 23 22 21 20 18 15 13 12 8 7 9 9 8 9 9 9 8 10 12 14 14 10 7 10 16 23 26 25 25 26 27 27 30 34 35 34 33 34 38 42 42 40 39 36 34 34 34 33 26 23 25 25 28 34 33 30 27 22 19 21 23 25 25 24 20 19 20 22 22 22 22 22 21 20 18 16 15 14 15
26 26 25 25 24 23 23 23 23 22 22 21 20 18 16 13 12 11 10 9 9 9 8 9 9 9 10 12 14 13 9 6 10 16 22 26 27 25 26 29 28 30 34 36 35 34 37 41 41 40 38 35 33 33 32 33 35 30 22 22 23 26 32 34 33 30 24 20 21 22 25 26 25 21 20 22 24 23 22 23 22 21 21 19 16 15 15 16
27 26 24 23 23 23 24 24 24 23 22 21 20 18 16 13 11 12 11 9 8 9 8 8 8 9 9 8 9 9 6 5 9 15 19 23 27 26 26 29 29 29 33 38 40 39 39 40 41 40 36 33 33 33 32 32 35 36 29 22 23 26 28 24 25 30 28 23 21 23 26 28 27 24 24 24 24 24 23 23 24 24 24 23 20 18 17 17
27 26 24 23 24 25 25 24 24 23 22 21 19 17 16 13 12 12 13 11 9 9 7 6 8 8 8 7 6 4 4 5 8 14 17 21 26 27 27 28 29 30 34 38 41 43 41 37 38 39 37 35 34 34 34 33 35 39 39 31 25 27 28 21 17 22 26 25 26 26 24 29 32 28 27 26 24 25 25 25 27 28 28 27 25 24 21 19
27 27 25 25 25 26 26 25 24 23 22 21 19 18 15 13 13 12 13 11 7 7 6 5 7 6 6 7 6 3 5 7 8 13 16 19 23 27 27 27 28 31 34 36 38 42 41 38 34 31 34 39 37 37 37 36 33 35 42 41 32 26 25 24 20 16 15 17 23 25 18 23 33 34 31 29 27 26 26 26 27 27 28 29 27 26 24 22
28 27 27 26 25 26 27 26 24 22 20 19 19 18 16 14 12 11 12 9 5 6 7 5 6 6 5 5 5 5 5 6 7 11 14 15 19 24 26 27 28 30 32 33 34 39 40 42 37 24 22 31 37 41 40 37 32 31 40 44 37 30 24 22 20 15 12 11 15 18 15 17 26 33 35 32 30 29 27 26 27 27 27 26 25 24 23 22
29 28 27 27 26 26 26 25 24 22 19 17 17 16 15 13 11 10 9 6 4 5 5 5 6 6 7 7 6 5 2 3 6 7 10 12 16 20 24 27 28 29 32 30 29 35 40 41 40 32 21 19 29 40 42 40 33 30 38 42 38 35 30 25 20 15 14 14 15 15 15 15 20 31 37 34 31 31 29 29 27 26 25 24 23 22 21 21
29 28 28 27 27 26 26 25 24 22 19 18 16 14 12 10 8 7 4 2 3 4 5 5 6 7 7 8 8 5 5 6 6 6 8 10 13 16 20 24 27 28 30 32 27 29 38 41 40 40 32 25 27 32 37 41 37 32 32 33 35 35 32 28 23 19 17 17 19 18 16 13 16 30 38 35 34 32 31 32 31 28 26 24 22 21 20 20
30 30 28 27 27 25 25 25 24 21 18 16 15 12 9 6 4 3 2 2 4 5 5 6 7 8 8 7 7 7 8 10 10 10 10 9 9 12 16 20 24 26 27 33 30 25 32 36 35 36 39 38 33 25 27 34 38 36 26 19 25 29 28 24 21 21 19 17 21 23 21 14 15 27 34 34 37 37 35 34 32 31 28 26 25 22 21 21
31 30 29 28 26 24 23 22 22 20 16 14 12 9 6 4 3 2 2 4 4 4 7 7 7 10 11 8 6 6 8 10 12 13 12 9 8 9 12 16 22 26 25 27 29 30 32 30 26 28 34 40 37 25 19 23 33 37 25 11 12 19 22 21 20 21 16 16 23 26 24 17 15 25 32 36 40 40 38 35 32 31 30 29 27 25 24 23
31 30 29 28 26 24 21 18 18 17 14 11 10 7 4 3 4 4 2 4 5 6 8 8 9 12 14 13 10 10 9 9 11 12 9 8 7 8 10 14 19 25 26 25 26 29 34 31 25 24 25 29 32 27 17 16 26 32 23 16 11 12 16 17 20 20 13 13 20 27 27 21 20 26 31 39 43 40 38 36 34 32 30 30 28 26 25 23
31 30 29 28 26 25 21 16 14 14 12 9 8 6 3 3 4 5 4 3 3 5 7 9 12 14 16 17 15 14 11 9 9 10 9 6 6 8 11 16 18 20 22 24 24 24 30 35 31 25 19 20 27 28 20 16 24 28 23 21 17 10 10 12 12 14 14 14 13 18 23 23 27 32 35 42 43 39 40 38 35 34 32 31 29 27 25 23
31 29 28 28 26 23 21 17 13 12 11 7 6 6 4 3 3 6 6 3 2 5 7 10 13 15 17 18 16 14 10 8 8 8 7 4 4 7 12 15 19 20 17 18 23 22 23 28 32 28 20 19 25 28 25 22 24 28 27 26 21 11 7 9 9 8 12 15 12 14 18 19 25 31 40 48 45 40 42 39 36 36 34 33 31 28 25 23
30 29 28 27 25 21 18 16 14 12 10 6 4 5 5 4 3 5 6 5 5 6 8 9 12 15 17 15 13 12 10 8 8 6 4 2 3 6 9 11 15 19 19 17 18 21 20 18 23 31 27 23 25 26 26 25 26 28 28 27 26 20 13 9 8 8 8 8 10 17 16 12 12 19 32 44 46 44 43 40 38 37 36 35 33 30 26 23
29 29 27 26 24 20 17 15 14 13 10 4 2 5 5 4 4 4 4 5 5 6 7 10 12 13 13 11 9 11 11 10 9 9 6 2 5 5 7 8 9 13 17 16 13 18 25 20 18 27 30 26 26 25 25 26 28 28 27 28 28 27 22 13 8 10 10 8 10 18 18 14 12 17 26 34 40 43 43 41 39 38 38 37 35 32 27 22
27 27 26 23 21 20 17 13 13 13 10 4 2 5 5 5 5 4 3 3 4 6 7 9 11 10 10 10 9 11 13 12 10 8 6 4 4 5 4 5 6 7 12 15 12 12 18 20 19 23 28 29 28 27 27 27 24 24 28 31 28 26 25 19 11 9 10 11 9 13 21 24 21 26 33 34 34 37 40 41 40 41 39 38 36 33 27 22
25 25 23 20 18 18 16 12 12 12 9 6 4 5 6 6 5 4 3 4 5 6 7 7 8 8 7 9 11 13 13 12 10 7 5 5 5 6 4 3 3 3 6 10 13 11 10 14 19 23 27 31 31 28 30 30 25 21 26 30 26 23 24 22 14 8 9 10 7 10 19 24 18 20 30 35 34 35 39 37 37 41 41 38 36 33 27 22
26 24 21 19 17 16 14 12 10 10 9 6 5 6 6 6 6 5 4 4 5 6 6 5 6 7 7 9 11 13 13 11 10 7 4 4 4 6 5 3 3 1 2 5 8 10 11 12 16 24 27 29 32 30 28 31 31 25 21 24 24 21 22 23 16 9 9 9 7 8 14 21 22 19 19 25 32 37 40 38 36 38 41 40 36 31 27 23
27 24 20 19 18 15 14 11 9 7 7 6 5 7 7 7 6 4 4 3 5 6 6 5 5 5 7 8 10 12 12 10 9 7 4 4 4 7 7 5 4 1 1 3 5 7 9 8 11 21 25 26 30 33 29 26 31 31 24 22 24 21 21 25 23 15 9 8 7 7 10 16 24 25 20 21 27 33 37 39 38 37 38 39 36 31 27 24
25 22 20 20 18 16 14 10 7 5 4 5 7 8 8 8 6 3 3 4 5 6 5 5 4 4 6 7 9 11 10 9 9 7 5 5 5 7 8 7 6 5 3 3 5 6 7 7 9 15 22 23 25 31 32 25 25 30 28 24 25 24 19 20 24 24 17 9 6 6 8 14 21 25 26 26 29 32 33 35 38 39 38 37 35 33 29 26
24 21 20 20 19 17 12 8 6 5 3 4 7 9 9 8 6 3 4 5 5 6 5 5 5 6 6 7 9 10 9 9 9 8 6 6 5 6 6 6 7 6 5 4 5 6 5 7 10 14 19 20 20 27 35 32 26 27 26 23 24 25 21 16 17 25 26 17 10 7 8 12 16 15 17 20 24 30 32 32 34 37 38 37 34 31 29 28
25 23 21 19 19 15 9 6 7 7 3 3 6 7 8 8 6 5 4 4 4 5 6 7 7 7 8 9 9 9 9 9 10 9 7 6 6 6 7 8 8 6 5 4 5 6 6 6 10 16 21 23 22 22 30 35 30 25 26 25 25 25 23 18 12 16 25 24 18 14 13 15 19 15 9 9 15 20 25 29 32 35 37 38 35 31 28 28
25 24 21 20 18 12 7 7 8 7 3 2 5 6 7 7 7 7 8 8 7 8 8 8 8 8 8 9 9 9 8 8 9 8 8 9 9 8 9 10 7 5 4 4 4 5 6 6 8 13 19 24 23 19 23 30 29 25 24 26 29 27 25 24 16 10 16 21 20 16 13 15 25 28 19 12 13 16 20 22 25 30 34 36 36 33 30 28
25 23 20 18 16 9 7 8 8 6 4 3 5 6 7 7 9 10 11 11 10 10 10 10 10 9 8 9 9 9 8 7 6 7 9 10 11 10 9 9 8 6 5 4 5 5 5 6 5 6 10 16 18 16 18 23 26 26 23 25 29 27 27 28 22 13 13 18 21 17 11 12 25 31 25 18 16 16 19 21 22 23 27 31 33 33 31 29
25 22 20 18 13 7 7 9 9 8 6 3 4 6 6 7 9 10 10 10 10 10 10 10 10 9 8 7 8 9 10 8 7 9 10 11 12 12 10 10 9 7 5 6 7 8 8 9 8 6 6 8 8 8 10 15 20 21 20 23 26 25 26 24 18 15 14 15 22 22 14 13 23 27 23 20 19 16 15 19 22 21 22 25 27 27 28 28
25 21 20 18 11 7 9 10 10 11 8 5 3 3 4 4 6 7 7 8 8 8 9 8 8 9 8 8 8 10 11 11 10 11 12 12 13 13 13 14 12 8 6 7 9 10 11 13 13 13 13 11 7 5 7 13 17 16 15 19 22 21 22 19 14 14 12 11 20 25 19 17 22 22 19 19 18 16 14 16 20 21 21 22 24 25 25 26
25 21 20 17 11 9 10 10 11 12 10 7 5 3 3 3 3 5 6 7 8 8 8 9 10 10 11 10 10 11 11 12 13 13 14 15 15 15 17 16 14 11 8 7 8 10 13 15 16 17 20 21 18 15 12 12 15 16 15 18 19 16 16 17 17 17 15 12 13 16 21 26 23 18 16 14 14 16 16 17 19 20 22 22 24 26 27 28
23 20 19 16 12 10 10 9 10 12 10 8 7 5 5 5 5 5 5 6 8 9 9 9 10 11 11 11 11 12 12 13 14 16 16 16 17 18 19 17 14 13 9 6 7 10 14 17 17 18 21 23 22 21 17 14 15 17 17 19 19 15 13 15 18 21 22 20 13 11 21 29 25 21 21 19 18 20 21 20 20 19 20 21 22 25 28 30
22 19 17 14 11 11 10 10 11 11 9 9 8 7 7 6 7 7 6 6 7 8 9 9 10 11 11 12 13 13 14 14 15 17 17 17 18 19 20 18 15 13 12 9 7 8 11 14 14 16 20 23 23 22 18 14 16 19 20 20 19 17 15 16 17 20 22 23 22 23 29 30 26 26 27 26 25 26 26 25 23 22 21 21 21 22 24 28
20 17 14 12 10 10 10 10 11 11 10 11 10 8 7 5 5 6 6 6 7 8 9 10 11 11 11 12 13 13 14 15 17 18 18 19 20 20 20 19 17 15 15 12 9 8 10 12 10 10 16 22 24 22 17 13 16 20 22 22 19 18 17 16 16 18 20 22 25 30 35 35 33 32 29 27 26 27 27 28 27 27 26 25 24 22 22 24
19 15 12 10 9 8 8 9 10 10 11 13 12 9 8 7 5 4 5 7 7 7 9 9 11 11 10 10 11 12 14 15 17 19 19 20 22 21 22 22 20 20 19 16 14 12 11 14 14 10 12 17 19 17 15 14 15 20 25 25 20 18 17 16 15 14 16 19 21 27 34 35 36 36 33 31 30 28 28 29 29 29 29 29 28 24 22 21
18 12 9 9 8 7 8 8 10 11 12 13 13 11 10 9 8 7 5 4 4 7 9 9 11 11 10 9 10 12 13 15 17 19 19 21 23 23 24 24 23 24 24 21 18 14 11 13 15 11 10 13 15 13 12 11 10 16 25 29 24 20 19 17 12 9 11 15 19 27 34 35 35 37 35 33 34 34 33 32 31 31 30 29 28 24 21 21
Wind_Direction
342 341 341 341 339 339 338 336 335 333 331 329 327 324 318 310 302 297 291 288 288 290 289 286 282 278 277 275 274 272 269 266 262 253 237 234 229 218 214 218 218 221 222 216 214 212 211 211 211 213 213 215 216 217 223 226 219 215 220 219 192 148 134 127 112 98 104 99 67 176 181 170 166 165 168 170 174 173 175 183 177 163 153 157 163 169 183 181
339 339 339 339 339 339 339 339 336 335 334 333 332 328 323 317 310 304 297 289 285 286 286 284 279 274 271 270 270 269 268 265 258 239 237 239 238 230 221 222 220 219 223 221 218 217 215 214 214 213 213 214 216 218 222 226 224 219 220 215 177 142 133 131 118 99 94 100 100 165 189 180 172 173 173 175 179 179 180 180 178 174 163 165 169 165 179 186
340 339 338 338 339 339 340 340 339 339 338 338 337 333 328 323 319 313 305 296 287 283 282 280 277 272 268 265 264 266 265 262 257 240 240 244 240 236 227 227 226 221 223 221 218 219 218 219 219 217 214 212 213 217 221 224 224 222 218 203 168 151 140 141 138 124 107 110 124 152 184 185 179 181 181 182 192 190 171 166 175 183 177 171 173 168 176 188
340 339 340 338 337 337 339 341 340 342 342 342 342 338 334 329 327 322 316 307 296 288 281 277 275 271 267 263 259 259 261 261 257 243 243 248 241 234 226 227 227 222 221 218 214 211 211 213 215 217 217 214 213 215 220 223 223 223 215 190 171 162 152 157 156 145 140 142 138 146 178 184 177 177 179 173 182 182 157 141 157 175 195 183 174 171 172 187
337 337 338 339 337 335 335 337 338 341 343 343 342 340 337 335 333 329 326 320 309 298 287 279 274 270 265 262 258 253 256 260 256 245 242 248 247 237 227 228 224 219 220 220 218 212 208 209 209 212 214 214 214 214 219 223 226 227 213 191 180 168 162 168 165 159 156 153 147 144 169 185 178 162 150 133 105 143 152 138 146 154 184 199 183 177 173 183
333 333 333 335 336 333 330 330 331 334 337 337 335 334 334 333 333 331 329 326 320 309 298 288 277 271 265 259 256 249 246 252 250 244 243 244 249 244 232 229 222 218 219 219 220 217 213 210 207 208 210 213 214 215 220 224 229 230 216 199 190 177 173 176 175 171 163 162 157 150 168 187 181 153 137 130 110 131 145 132 139 149 166 188 190 189 180 179
330 330 329 330 331 331 327 324 323 325 326 326 325 324 325 325 326 327 326 325 323 316 307 299 286 277 269 259 253 247 241 244 243 239 243 241 244 246 235 227 222 218 218 219 220 221 220 217 212 209 208 210 211 213 217 223 230 230 220 205 196 188 182 183 184 179 172 172 170 167 174 180 178 157 142 147 139 141 149 144 145 150 158 171 174 186 189 180
327 327 327 328 328 328 325 321 320 320 320 319 318 318 319 319 320 321 322 322 320 315 311 306 297 287 276 264 254 246 236 239 240 235 238 239 238 242 235 224 223 220 219 221 223 225 227 226 221 215 211 209 209 210 212 219 227 227 220 208 201 195 188 189 188 183 181 181 184 182 172 172 189 199 172 161 162 151 155 167 168 163 160 165 166 172 184 182
329 328 329 329 329 328 324 319 317 317 318 317 317 319 319 318 318 318 318 319 317 314 312 307 303 296 284 272 258 247 235 234 236 231 230 233 232 235 233 221 221 223 220 220 221 225 226 226 227 223 218 213 210 211 211 215 222 223 216 206 202 198 194 193 190 185 187 190 193 191 184 190 201 211 201 186 194 179 167 180 183 178 166 165 167 164 173 181
334 333 333 333 332 331 327 321 317 315 314 313 315 320 321 319 319 319 318 317 315 312 311 307 303 299 291 279 265 252 238 230 230 228 226 228 229 231 232 223 217 220 221 219 219 223 225 226 228 228 223 218 215 213 213 214 217 220 214 204 201 201 198 196 194 188 191 197 197 198 203 213 222 226 213 198 198 188 182 195 195 191 175 168 169 165 169 177
340 338 338 340 339 336 333 328 324 318 313 309 311 317 319 320 321 321 319 316 313 310 310 307 302 297 293 284 271 256 239 229 227 225 223 224 227 229 230 228 220 216 219 220 220 222 225 225 223 224 221 219 219 218 216 214 214 218 215 204 201 203 202 200 196 190 196 201 200 210 220 228 231 223 210 205 206 197 195 204 205 202 187 178 177 173 173 175
344 342 342 344 343 341 338 334 331 326 320 313 311 314 315 317 321 320 318 314 311 310 309 306 302 296 290 283 273 262 244 232 229 225 222 221 225 228 227 227 222 215 213 217 221 220 220 221 218 218 220 222 221 222 221 214 213 219 217 208 205 207 208 204 198 193 202 202 199 220 233 230 218 194 193 209 213 215 218 215 216 213 201 194 189 185 180 177
346 344 344 346 345 343 340 337 334 329 326 320 316 315 312 314 318 318 315 312 310 310 309 305 300 296 289 281 274 267 250 235 230 227 223 221 223 226 225 222 219 213 208 208 213 216 218 218 216 214 217 223 223 223 223 215 215 219 218 213 209 213 214 208 201 201 207 204 200 225 239 227 208 182 197 213 216 220 223 218 217 218 212 208 202 194 190 185
346 344 344 346 346 344 341 339 335 331 328 323 320 318 313 313 314 314 311 309 310 310 308 304 300 297 291 283 273 265 254 238 231 227 223 220 222 224 223 218 214 212 207 201 200 207 215 216 214 211 214 221 223 223 223 218 218 219 222 220 216 220 218 208 206 210 213 211 207 226 242 228 212 210 213 212 215 220 227 226 220 221 218 213 211 205 200 196
344 343 341 342 344 343 341 339 335 331 328 323 321 318 316 315 313 311 308 307 309 309 307 305 303 299 291 284 274 264 255 242 231 226 222 220 220 222 222 216 210 209 207 201 195 198 209 215 213 211 210 217 222 222 220 219 220 220 222 224 221 222 215 207 210 215 216 218 216 224 240 232 218 223 224 218 220 223 233 235 225 222 221 217 214 210 208 204
341 340 338 339 341 341 339 338 334 331 329 325 322 319 317 316 315 313 307 307 309 310 309 308 307 302 291 286 279 267 254 245 234 226 223 220 219 220 221 215 207 204 204 200 193 193 203 211 214 214 212 213 218 221 220 220 223 223 221 220 223 220 212 210 214 217 217 220 222 223 235 236 217 219 227 227 227 231 240 242 235 227 224 224 221 215 214 210
338 338 336 336 338 339 337 335 333 331 330 328 325 322 320 318 318 315 309 309 310 312 313 311 310 302 288 287 286 277 258 248 237 226 223 220 217 218 219 217 209 200 199 197 191 192 200 207 211 214 214 212 215 217 218 219 219 222 220 217 223 220 213 214 215 218 219 220 226 228 234 237 225 223 232 234 235 239 244 247 247 240 231 227 225 223 221 217
335 335 333 333 335 335 334 333 332 331 331 331 329 326 324 320 319 317 311 310 312 313 314 309 309 305 289 291 299 296 275 253 239 227 223 220 216 216 216 216 212 201 197 194 191 192 197 206 210 213 216 213 212 211 211 215 214 216 219 217 220 221 219 218 215 219 221 220 228 233 237 241 240 242 241 242 243 245 250 254 256 251 242 234 230 230 228 225
333 332 330 330 331 333 332 331 331 330 330 331 331 330 329 325 324 323 314 312 317 316 310 302 305 313 304 302 310 312 294 264 244 229 223 220 215 214 212 211 210 203 199 195 192 194 197 203 208 212 215 212 210 210 210 213 213 215 221 221 220 222 222 220 215 218 219 220 229 234 240 245 248 249 247 249 250 249 253 256 257 254 244 237 233 233 234 233
332 330 328 327 329 332 332 331 331 330 330 330 331 333 334 330 326 326 319 320 322 314 307 301 299 303 308 313 320 324 318 284 250 229 223 221 215 213 212 210 207 203 201 199 195 196 198 205 210 212 212 211 210 211 212 215 214 217 224 226 226 225 225 223 220 221 218 219 228 233 242 249 250 249 248 252 255 252 251 250 252 250 243 237 235 233 235 237
329 328 327 327 331 334 332 332 333 330 329 329 330 333 337 338 332 325 324 327 320 311 306 297 293 296 308 320 322 326 330 297 246 223 220 220 218 214 212 212 209 203 201 201 201 198 202 210 214 215 215 213 212 213 216 217 215 219 224 225 228 229 227 225 224 227 225 227 232 231 237 245 246 247 247 247 250 251 249 248 249 249 245 241 238 236 235 237
328 329 330 330 333 334 333 334 333 330 329 329 330 331 334 340 336 324 322 328 318 309 300 286 285 293 305 323 329 331 334 293 237 221 218 217 217 216 214 213 212 209 202 200 203 203 207 214 217 218 218 217 216 215 217 218 218 219 221 222 224 228 229 227 228 232 231 234 238 235 238 242 242 247 249 246 246 246 248 249 251 252 249 246 244 243 240 238
331 332 333 334 334 333 332 333 333 330 330 330 328 326 328 330 328 321 320 324 315 306 295 276 274 288 300 320 335 336 326 279 228 218 218 216 215 215 215 214 214 213 207 203 205 206 210 217 221 221 219 219 220 219 218 220 222 220 218 218 219 223 226 227 230 235 237 238 240 241 246 247 244 247 249 246 245 244 246 250 253 254 253 251 253 257 256 250
335 335 335 336 335 332 331 333 332 330 329 328 323 319 321 320 318 315 314 316 308 298 284 262 272 293 305 316 337 341 307 283 232 218 221 218 215 215 215 214 214 215 212 208 209 212 215 221 225 224 221 220 221 222 220 220 224 223 219 216 217 218 219 221 224 233 240 244 243 243 253 254 245 244 247 246 246 244 243 247 249 250 250 252 255 256 258 257
337 336 335 336 333 330 330 331 330 328 327 324 317 313 314 313 311 307 308 312 301 281 269 268 287 296 313 322 333 329 281 278 250 226 226 222 217 218 217 214 214 216 217 212 213 219 221 225 231 230 227 225 222 223 222 220 224 227 222 216 214 214 215 221 224 231 245 249 247 243 250 257 247 242 244 245 247 245 243 244 244 247 250 252 254 256 256 255
337 336 334 334 332 331 330 328 326 325 325 321 313 311 311 309 307 302 305 309 286 268 266 277 290 288 312 316 314 313 276 267 262 238 231 229 223 222 222 219 216 217 218 214 217 222 223 226 230 228 230 230 225 225 226 223 224 230 228 220 214 216 218 221 224 235 245 242 245 237 234 256 253 245 243 244 246 245 245 245 244 246 251 252 253 255 254 251
337 336 334 333 333 332 329 324 324 324 325 321 312 309 309 306 304 301 303 304 279 268 264 269 282 292 311 309 307 321 272 270 294 264 245 242 233 227 227 226 221 219 218 214 219 226 224 225 227 224 225 232 228 227 228 225 223 230 235 227 219 220 225 229 231 242 250 249 248 232 226 252 259 248 244 244 246 247 245 244 243 246 249 249 251 250 247 246
335 334 333 334 335 333 328 324 324 324 325 322 314 311 307 302 301 296 293 279 266 269 268 280 289 292 308 318 324 321 277 278 295 281 262 253 247 237 232 231 229 226 221 215 218 227 227 226 229 227 225 229 232 232 231 228 224 230 238 234 226 224 229 235 241 247 255 262 258 241 229 245 257 249 245 244 246 247 244 241 242 245 246 247 250 248 245 243
333 333 333 334 335 333 328 324 322 322 325 322 317 313 305 295 288 265 206 218 268 278 274 283 296 294 303 322 326 309 282 279 281 284 285 271 258 245 234 231 230 230 228 224 223 229 231 231 236 234 230 232 234 237 238 232 227 230 235 239 233 229 232 235 239 247 253 256 253 245 235 239 258 250 242 240 242 243 242 240 241 244 245 247 249 248 248 246
332 332 333 333 333 331 326 322 318 320 324 321 316 309 296 281 254 215 188 220 250 289 287 289 306 304 305 311 311 304 292 282 276 282 298 299 277 255 236 226 224 226 227 229 230 231 232 234 241 242 237 236 234 237 241 233 231 232 226 216 224 225 227 232 234 240 249 249 244 243 237 236 256 252 240 237 238 240 242 242 243 245 245 246 248 248 249 248
331 331 332 331 331 328 323 319 313 313 317 317 310 301 281 255 220 185 187 235 254 292 298 302 312 310 314 322 324 325 318 297 275 271 288 294 272 256 233 217 217 220 222 226 231 234 232 231 235 239 242 239 233 232 235 229 230 229 213 194 198 204 211 222 228 227 236 248 240 238 237 234 243 247 242 240 239 240 244 244 243 245 244 245 247 248 250 251
330 332 332 331 331 328 322 320 312 307 310 310 301 291 259 228 209 196 219 252 269 299 311 320 320 318 325 333 334 336 333 319 292 277 282 279 253 236 216 210 208 210 219 222 226 232 233 231 230 233 239 236 228 224 223 223 223 219 205 197 200 193 194 206 212 214 230 244 236 229 232 234 242 247 245 242 240 239 243 245 244 244 244 245 246 247 250 253
330 332 332 331 332 329 324 324 320 312 310 304 292 280 234 207 212 211 225 234 258 306 319 325 327 328 331 334 339 347 347 329 308 287 284 283 254 223 207 210 209 208 214 216 218 225 233 234 230 228 229 228 225 219 212 212 213 210 202 198 200 194 196 210 208 212 231 239 233 225 232 241 248 254 252 244 239 238 241 243 245 244 243 244 245 247 251 252
331 333 333 331 331 331 327 325 323 314 307 305 289 263 219 200 211 211 224 237 257 299 322 329 332 335 336 342 349 356 359 341 319 301 289 245 218 214 204 212 216 217 217 212 213 216 223 231 224 220 220 220 222 220 215 214 215 212 205 202 207 208 208 213 209 216 236 247 225 212 222 237 234 248 254 247 240 239 241 243 244 243 242 243 246 246 248 250
334 335 334 331 330 332 332 324 318 311 306 306 260 240 216 197 203 208 232 250 261 296 322 330 334 337 341 348 352 351 350 341 329 314 301 234 196 207 211 217 223 223 218 212 212 215 223 231 220 215 218 217 219 221 220 221 222 220 210 206 212 212 212 220 230 227 238 261 231 204 217 239 236 246 254 248 245 242 240 241 241 241 240 242 245 244 245 247
338 335 333 331 330 333 333 323 312 310 308 304 240 222 206 197 203 201 233 267 276 302 320 328 334 340 342 341 339 340 337 330 327 318 301 275 223 213 219 219 220 222 212 208 209 213 226 233 223 218 219 216 216 218 217 218 219 218 212 210 214 213 212 221 237 232 228 249 237 204 227 246 250 255 252 247 249 245 239 239 239 238 239 241 242 241 242 243
341 337 333 331 331 331 329 320 310 308 303 290 240 207 196 201 211 203 230 281 285 303 320 325 329 335 337 335 330 330 333 329 327 325 299 281 258 230 218 188 184 209 206 209 213 217 238 239 220 212 214 215 215 217 220 221 218 215 213 211 210 212 218 222 230 227 214 237 232 196 229 241 236 247 250 243 243 243 240 239 237 238 239 240 240 239 239 240
345 341 336 333 333 333 331 322 311 304 293 276 232 205 199 202 214 213 229 270 277 295 315 317 326 332 326 329 327 324 331 331 324 324 290 272 273 245 226 183 158 178 216 216 219 229 248 253 223 209 210 214 213 214 221 225 224 222 220 215 207 206 212 211 218 231 221 235 240 202 229 240 228 230 246 243 239 241 242 239 235 237 239 239 237 238 238 238
347 342 338 337 337 337 335 327 316 307 287 256 215 201 200 201 216 227 227 251 272 284 299 302 311 321 315 318 319 317 323 323 319 324 292 263 269 253 247 240 221 211 284 246 240 249 251 257 236 214 207 209 211 212 216 222 222 222 225 223 215 212 210 206 211 224 223 233 241 214 222 240 238 236 239 244 244 243 243 239 235 234 238 238 236 238 239 238
346 343 342 340 341 341 338 332 328 325 292 244 215 209 208 204 211 234 235 244 268 274 280 291 295 299 301 305 309 309 312 311 312 314 283 266 276 263 258 265 256 240 265 263 256 266 250 240 248 224 207 205 207 209 212 214 213 214 220 220 214 214 214 210 216 221 222 233 236 220 229 241 246 246 244 245 246 245 243 241 237 233 234 237 238 239 242 241
347 348 347 344 345 344 343 345 348 343 317 240 217 213 214 213 216 235 251 253 263 268 273 282 280 281 289 296 300 300 302 305 306 307 291 273 290 293 274 285 292 267 253 257 256 263 246 232 247 237 216 208 204 206 210 213 211 207 211 211 208 212 211 210 221 221 222 232 231 226 249 248 244 248 252 253 251 248 245 242 240 235 232 234 237 241 243 243
348 352 353 349 347 348 354 5 359 353 342 221 214 219 221 225 232 241 252 258 261 266 272 277 278 283 291 293 291 291 299 305 301 297 290 275 285 303 293 297 312 304 279 262 249 252 252 249 251 245 230 213 203 201 206 213 216 212 210 207 205 211 212 213 224 216 217 228 232 237 252 254 246 238 235 255 257 252 247 243 243 240 235 233 235 241 244 244
351 354 356 352 349 354 14 15 6 6 357 231 227 237 236 240 248 250 257 263 267 272 273 271 273 278 283 280 279 286 298 307 301 286 281 287 294 299 296 300 314 323 310 276 250 256 260 257 256 253 240 221 212 209 207 210 214 217 218 211 208 211 212 218 228 220 218 221 219 230 244 250 254 249 237 234 242 242 239 238 241 242 239 235 234 239 242 242
352 353 356 355 351 357 16 16 18 22 359 271 250 254 255 261 266 265 268 270 269 270 270 268 269 270 269 270 274 283 291 298 298 286 284 291 295 296 298 301 310 324 318 268 252 267 258 240 241 251 234 217 216 221 218 213 211 214 218 212 210 213 213 220 227 232 238 227 217 227 240 243 256 258 250 239 232 230 230 230 232 235 237 236 236 238 241 240
352 353 356 359 356 353 6 13 19 19 1 316 274 271 270 270 270 270 273 273 270 265 263 264 267 267 266 269 277 282 284 286 283 285 289 289 289 294 296 296 300 310 304 270 258 263 254 233 227 240 230 205 203 208 204 201 203 208 211 207 208 212 214 220 224 226 236 234 224 230 238 244 255 263 264 252 233 221 220 223 224 222 223 229 232 232 233 234
352 355 357 0 360 354 1 9 11 9 5 359 337 306 291 275 269 270 267 263 260 255 254 256 260 270 275 274 274 276 280 283 280 281 290 294 293 291 288 288 291 291 289 281 266 257 255 244 235 243 251 249 261 264 219 205 207 210 206 198 200 209 216 220 219 219 227 239 236 234 237 246 254 260 268 264 242 220 211 217 223 223 220 219 220 220 221 225
352 357 357 1 5 358 2 9 4 3 6 5 359 344 317 295 273 268 258 251 249 246 252 260 263 273 283 281 275 273 274 275 276 281 288 291 289 283 280 281 284 284 282 283 272 255 251 250 244 244 249 252 264 275 261 236 229 228 217 200 196 205 220 224 224 222 224 239 245 235 234 242 251 254 255 259 251 235 226 229 231 228 222 221 221 222 224 228
352 355 356 1 5 358 4 12 3 3 12 9 359 339 312 296 280 271 255 246 247 246 254 268 273 276 280 281 278 278 281 280 280 284 285 285 284 279 276 274 273 277 276 275 284 267 250 251 253 250 250 250 256 265 266 257 248 242 231 216 207 212 230 239 236 230 229 238 241 226 230 238 246 250 247 247 252 251 247 245 241 233 229 231 234 234 232 232
352 353 354 0 4 1 4 7 4 8 15 10 358 338 315 292 275 273 265 249 246 251 259 267 273 272 271 274 278 281 286 287 286 286 287 287 286 283 283 279 270 269 271 270 280 274 256 257 258 254 253 250 250 257 266 265 258 250 239 228 223 228 242 251 248 239 240 247 244 235 237 240 242 246 248 248 251 254 255 256 255 252 251 251 252 250 244 240
355 353 356 4 7 3 2 3 5 9 10 5 358 352 343 318 284 271 271 269 262 263 270 273 276 277 274 275 280 284 287 286 286 289 291 291 289 288 289 286 279 274 273 271 273 271 261 257 251 252 258 252 246 252 263 264 257 252 244 236 236 243 249 254 253 247 249 251 243 238 242 246 246 248 251 252 254 255 257 260 260 260 261 263 264 264 259 249
357 355 0 7 4 0 4 7 5 4 3 2 2 4 5 351 331 307 289 286 280 275 277 282 289 293 290 286 287 288 287 286 286 288 290 289 288 288 285 282 281 279 274 272 273 271 264 256 249 254 270 261 248 248 253 252 258 260 248 237 236 243 249 253 254 254 254 248 239 238 242 246 249 250 251 254 256 258 260 261 261 262 264 267 270 271 268 258
1 2 5 7 4 2 9 9 2 359 2 5 5 4 1 353 345 340 323 291 282 289 294 301 306 306 305 302 300 296 291 289 290 291 289 285 283 282 279 276 275 273 269 269 269 264 259 258 254 255 270 265 247 237 238 242 258 263 247 235 232 239 248 251 248 256 261 242 228 232 237 240 245 248 250 252 254 257 260 261 262 264 266 268 271 274 274 266
Height
3148 3147 3147 3146 3144 3144 3143 3142 3141 3140 3139 3138 3138 3137 3136 3135 3135 3134 3134 3133 3132 3132 3132 3133 3133 3133 3133 3133 3133 3134 3134 3135 3135 3136 3136 3134 3134 3135 3137 3137 3138 3140 3142 3144 3146 3147 3150 3152 3154 3156 3157 3158 3160 3160 3161 3161 3162 3162 3163 3164 3164 3165 3166 3166 3166 3167 3167 3168 3168 3169 3170 3171 3171 3172 3173 3173 3173 3173 3174 3175 3176 3176 3177 3178 3179 3180 3182 3184
3147 3146 3146 3144 3143 3142 3141 3140 3139 3139 3138 3137 3136 3135 3134 3134 3133 3133 3132 3131 3131 3130 3130 3131 3131 3131 3131 3131 3132 3132 3133 3133 3134 3135 3134 3133 3134 3135 3136 3135 3137 3139 3141 3143 3146 3148 3150 3151 3153 3155 3156 3158 3159 3160 3160 3161 3161 3162 3163 3164 3165 3166 3166 3166 3166 3167 3167 3167 3168 3169 3170 3171 3172 3172 3173 3173 3173 3174 3174 3174 3175 3176 3177 3178 3179 3180 3181 3184
3146 3145 3144 3143 3142 3141 3140 3139 3138 3137 3136 3136 3135 3134 3133 3132 3132 3131 3131 3130 3129 3129 3128 3128 3129 3129 3130 3130 3130 3130 3131 3132 3132 3132 3132 3132 3133 3133 3135 3135 3136 3139 3140 3143 3145 3147 3149 3151 3153 3154 3155 3157 3158 3158 3159 3160 3161 3162 3163 3164 3165 3166 3166 3166 3166 3166 3167 3167 3168 3168 3170 3170 3171 3172 3173 3173 3174 3174 3175 3175 3176 3177 3177 3178 3179 3180 3181 3183
3145 3144 3143 3142 3141 3140 3139 3138 3137 3136 3135 3134 3134 3133 3132 3131 3130 3130 3129 3129 3128 3127 3127 3127 3127 3127 3128 3128 3129 3129 3129 3130 3130 3130 3130 3131 3131 3132 3133 3133 3135 3138 3139 3140 3142 3144 3146 3147 3150 3152 3154 3155 3156 3157 3158 3159 3161 3162 3163 3164 3165 3165 3166 3166 3166 3166 3166 3167 3167 3168 3169 3170 3171 3172 3173 3174 3174 3175 3176 3176 3176 3177 3178 3179 3180 3180 3181 3183
3144 3143 3142 3141 3140 3139 3138 3137 3136 3135 3134 3133 3133 3132 3131 3130 3129 3128 3128 3127 3126 3126 3125 3125 3125 3125 3125 3126 3127 3127 3128 3128 3128 3129 3129 3129 3130 3131 3132 3132 3134 3136 3137 3138 3140 3141 3142 3144 3146 3149 3151 3153 3154 3156 3158 3159 3161 3161 3163 3164 3165 3165 3165 3165 3166 3166 3166 3166 3167 3168 3169 3170 3171 3172 3173 3174 3174 3175 3176 3176 3176 3176 3178 3179 3180 3181 3181 3183
3143 3142 3141 3140 3139 3138 3136 3135 3134 3134 3133 3132 3131 3130 3130 3129 3128 3127 3126 3126 3125 3124 3123 3123 3123 3123 3123 3124 3125 3125 3126 3126 3126 3127 3127 3128 3128 3129 3130 3131 3132 3134 3135 3137 3138 3139 3140 3142 3144 3146 3148 3151 3154 3156 3158 3159 3160 3161 3162 3164 3164 3165 3165 3165 3166 3166 3166 3166 3167 3167 3168 3170 3171 3172 3173 3174 3174 3175 3175 3176 3176 3176 3177 3178 3180 3181 3182 3183
3142 3141 3140 3139 3138 3137 3136 3134 3133 3132 3132 3130 3130 3129 3128 3127 3127 3126 3125 3124 3123 3123 3122 3121 3121 3121 3121 3122 3122 3123 3124 3124 3124 3125 3126 3126 3126 3127 3129 3130 3131 3132 3133 3134 3136 3138 3139 3141 3143 3145 3148 3150 3153 3155 3157 3158 3159 3160 3162 3163 3164 3164 3164 3165 3165 3166 3166 3166 3167 3167 3168 3169 3171 3172 3173 3174 3174 3175 3175 3176 3176 3176 3176 3178 3179 3180 3182 3184
3141 3140 3138 3138 3137 3136 3135 3133 3132 3131 3130 3129 3128 3127 3127 3126 3125 3124 3124 3123 3122 3121 3120 3120 3119 3119 3119 3120 3120 3121 3122 3122 3122 3124 3124 3124 3124 3124 3126 3128 3129 3130 3131 3133 3136 3138 3139 3141 3144 3146 3147 3149 3152 3154 3156 3157 3157 3159 3161 3162 3163 3164 3164 3164 3165 3165 3165 3166 3166 3167 3167 3169 3170 3172 3173 3174 3174 3174 3175 3176 3176 3176 3177 3178 3179 3180 3182 3184
3139 3138 3137 3136 3135 3134 3133 3132 3131 3130 3129 3127 3126 3125 3125 3124 3123 3123 3122 3121 3120 3119 3119 3118 3118 3117 3117 3117 3118 3119 3120 3120 3120 3122 3121 3122 3122 3123 3124 3126 3128 3129 3130 3132 3135 3136 3138 3140 3143 3145 3147 3150 3152 3153 3154 3155 3156 3158 3161 3161 3162 3163 3163 3163 3164 3164 3164 3165 3166 3166 3167 3168 3169 3170 3171 3173 3174 3174 3175 3175 3176 3177 3177 3178 3179 3180 3181 3183
3138 3137 3136 3135 3134 3133 3132 3131 3129 3128 3127 3126 3125 3124 3123 3122 3122 3121 3120 3119 3118 3117 3117 3116 3116 3116 3115 3115 3115 3116 3117 3117 3118 3119 3119 3120 3120 3121 3122 3124 3126 3127 3129 3130 3132 3134 3137 3141 3143 3145 3147 3149 3150 3151 3152 3154 3155 3158 3159 3159 3160 3161 3161 3162 3162 3163 3164 3164 3165 3166 3167 3167 3168 3169 3170 3171 3172 3173 3175 3175 3176 3177 3177 3178 3179 3180 3181 3183
3137 3136 3135 3134 3133 3132 3130 3129 3128 3127 3125 3124 3123 3123 3122 3120 3120 3119 3118 3117 3116 3115 3115 3114 3114 3113 3113 3113 3113 3112 3113 3115 3115 3116 3117 3117 3118 3120 3121 3122 3125 3126 3127 3129 3131 3134 3138 3141 3142 3144 3146 3147 3148 3149 3150 3153 3155 3156 3157 3158 3159 3159 3160 3160 3161 3162 3163 3164 3165 3166 3166 3166 3166 3166 3168 3170 3171 3173 3174 3175 3176 3177 3178 3178 3179 3180 3181 3182
3136 3135 3133 3133 3131 3130 3129 3127 3126 3125 3124 3122 3122 3121 3120 3119 3118 3117 3116 3115 3114 3113 3113 3112 3112 3111 3111 3111 3110 3109 3111 3113 3113 3113 3114 3116 3117 3118 3119 3121 3123 3124 3126 3128 3131 3134 3137 3139 3140 3142 3144 3145 3146 3148 3149 3152 3154 3154 3155 3156 3157 3158 3158 3159 3160 3162 3162 3163 3164 3165 3165 3164 3164 3165 3167 3169 3170 3172 3173 3174 3176 3177 3177 3178 3179 3180 3181 3181
3136 3134 3132 3131 3130 3128 3127 3126 3124 3123 3122 3121 3120 3120 3118 3117 3117 3115 3114 3113 3112 3111 3111 3110 3109 3109 3109 3109 3108 3107 3109 3110 3110 3111 3113 3114 3115 3115 3117 3118 3120 3122 3124 3126 3129 3133 3135 3137 3139 3140 3142 3143 3145 3146 3148 3150 3151 3152 3154 3155 3156 3157 3157 3158 3160 3161 3162 3163 3164 3164 3164 3163 3163 3165 3166 3167 3169 3170 3172 3173 3175 3176 3177 3177 3178 3179 3180 3181
3135 3133 3131 3130 3128 3127 3125 3124 3122 3121 3120 3119 3118 3118 3116 3116 3115 3113 3112 3110 3110 3109 3108 3108 3107 3107 3107 3106 3106 3105 3106 3107 3107 3109 3111 3112 3113 3114 3115 3116 3118 3120 3121 3124 3127 3130 3133 3135 3137 3138 3140 3141 3142 3144 3146 3149 3150 3151 3152 3153 3154 3155 3155 3157 3159 3160 3161 3162 3163 3164 3163 3162 3163 3165 3165 3166 3167 3169 3171 3172 3174 3175 3176 3177 3178 3179 3180 3181
3134 3131 3130 3128 3127 3125 3123 3122 3120 3119 3118 3116 3116 3115 3114 3113 3113 3111 3110 3108 3108 3107 3106 3106 3105 3106 3104 3103 3103 3103 3104 3104 3105 3106 3108 3109 3111 3111 3112 3114 3116 3118 3120 3122 3125 3128 3131 3133 3134 3135 3137 3139 3141 3143 3145 3146 3147 3148 3150 3151 3152 3153 3154 3156 3158 3158 3160 3161 3162 3163 3162 3161 3163 3164 3164 3165 3166 3168 3170 3171 3172 3174 3175 3176 3177 3178 3179 3180
3132 3130 3128 3126 3125 3124 3122 3120 3119 3117 3116 3114 3113 3112 3112 3111 3110 3109 3107 3106 3106 3105 3104 3104 3104 3103 3103 3101 3101 3101 3102 3102 3103 3104 3105 3107 3108 3109 3110 3112 3114 3116 3118 3121 3123 3125 3128 3131 3133 3134 3135 3137 3139 3141 3143 3145 3145 3146 3147 3149 3150 3151 3154 3155 3156 3157 3159 3160 3160 3161 3160 3160 3162 3163 3164 3164 3165 3167 3168 3169 3171 3173 3174 3175 3176 3177 3178 3179
3131 3129 3126 3125 3124 3122 3120 3118 3117 3115 3114 3112 3111 3110 3109 3109 3108 3107 3105 3104 3104 3103 3103 3102 3102 3102 3101 3100 3099 3100 3100 3100 3101 3102 3103 3104 3106 3107 3109 3110 3112 3114 3116 3119 3121 3122 3125 3128 3130 3132 3133 3135 3136 3139 3141 3142 3142 3142 3144 3147 3148 3150 3152 3153 3154 3156 3158 3159 3159 3159 3159 3159 3161 3163 3163 3164 3165 3166 3166 3168 3169 3171 3173 3174 3175 3176 3177 3178
3130 3128 3125 3123 3122 3120 3118 3116 3115 3113 3111 3110 3109 3108 3107 3107 3106 3105 3103 3102 3102 3102 3101 3101 3101 3100 3099 3099 3098 3098 3099 3098 3098 3100 3100 3102 3104 3106 3107 3109 3111 3112 3114 3116 3118 3120 3122 3125 3127 3129 3130 3131 3132 3134 3136 3136 3138 3140 3142 3144 3146 3148 3150 3151 3153 3154 3156 3157 3158 3158 3157 3158 3160 3161 3162 3163 3163 3164 3165 3167 3168 3169 3171 3172 3173 3174 3176 3177
3129 3126 3123 3121 3120 3118 3116 3114 3113 3111 3109 3108 3107 3106 3105 3105 3104 3103 3101 3100 3101 3100 3100 3100 3099 3099 3098 3098 3097 3097 3097 3096 3096 3097 3098 3100 3102 3104 3105 3107 3109 3111 3112 3113 3115 3117 3119 3121 3123 3123 3123 3125 3126 3128 3131 3133 3137 3139 3141 3143 3145 3147 3148 3149 3151 3153 3155 3156 3156 3156 3156 3157 3159 3160 3160 3161 3162 3163 3164 3165 3166 3167 3169 3170 3172 3173 3174 3175
3127 3125 3122 3120 3118 3116 3114 3112 3111 3109 3107 3106 3105 3104 3104 3103 3103 3102 3100 3099 3100 3099 3099 3098 3098 3098 3098 3097 3096 3095 3095 3094 3094 3095 3097 3098 3100 3102 3104 3105 3107 3109 3110 3112 3113 3115 3117 3117 3116 3115 3117 3121 3124 3127 3130 3133 3136 3139 3140 3142 3144 3145 3146 3148 3150 3152 3153 3154 3154 3155 3155 3155 3157 3158 3159 3160 3160 3161 3162 3163 3164 3165 3166 3168 3170 3171 3173 3174
3126 3123 3120 3118 3116 3114 3112 3111 3109 3107 3105 3104 3103 3102 3102 3101 3101 3101 3100 3098 3098 3098 3098 3097 3097 3097 3097 3096 3095 3095 3094 3093 3092 3093 3094 3096 3098 3100 3102 3103 3104 3105 3107 3111 3113 3114 3115 3113 3111 3114 3117 3121 3125 3128 3130 3132 3135 3137 3139 3140 3142 3143 3144 3146 3148 3149 3152 3152 3152 3153 3153 3153 3155 3156 3157 3157 3157 3158 3159 3161 3162 3163 3165 3166 3168 3170 3172 3173
3123 3121 3119 3116 3114 3112 3110 3109 3107 3105 3103 3102 3101 3100 3100 3100 3099 3099 3099 3098 3097 3097 3097 3096 3096 3096 3096 3095 3094 3094 3093 3092 3091 3091 3092 3094 3096 3098 3100 3101 3103 3104 3106 3109 3110 3112 3111 3109 3111 3114 3118 3122 3125 3127 3129 3131 3134 3136 3137 3138 3140 3141 3142 3144 3146 3147 3149 3150 3151 3152 3151 3151 3152 3153 3154 3154 3155 3156 3157 3159 3160 3162 3163 3164 3167 3169 3170 3172
3121 3119 3117 3115 3112 3110 3108 3107 3105 3103 3102 3101 3100 3099 3099 3098 3098 3097 3097 3096 3095 3095 3095 3095 3095 3095 3095 3095 3094 3093 3092 3091 3091 3090 3091 3092 3094 3096 3097 3099 3101 3103 3104 3105 3106 3107 3106 3107 3111 3113 3117 3121 3123 3125 3128 3129 3131 3133 3134 3136 3137 3138 3141 3144 3145 3146 3147 3148 3149 3150 3149 3148 3149 3150 3150 3151 3153 3154 3155 3156 3158 3159 3160 3162 3165 3167 3169 3170
3118 3117 3115 3113 3111 3108 3107 3106 3104 3102 3101 3100 3098 3098 3097 3097 3096 3095 3095 3095 3094 3093 3093 3094 3094 3094 3094 3094 3094 3093 3092 3091 3091 3090 3090 3091 3092 3093 3095 3097 3100 3101 3101 3103 3105 3105 3105 3108 3109 3111 3115 3119 3121 3123 3125 3126 3127 3128 3130 3132 3134 3137 3140 3142 3144 3144 3145 3146 3146 3148 3148 3144 3145 3147 3147 3149 3150 3151 3152 3153 3154 3155 3157 3159 3162 3165 3166 3168
3117 3115 3113 3111 3109 3107 3105 3103 3102 3101 3099 3098 3096 3095 3095 3095 3094 3094 3093 3093 3092 3092 3092 3093 3093 3093 3093 3093 3093 3092 3091 3090 3090 3090 3090 3090 3091 3092 3093 3095 3097 3099 3100 3103 3105 3104 3106 3109 3108 3110 3114 3116 3119 3120 3121 3124 3125 3126 3126 3128 3132 3136 3138 3140 3142 3144 3145 3145 3144 3147 3146 3141 3141 3144 3144 3146 3147 3148 3150 3151 3152 3153 3155 3157 3159 3162 3164 3165
3115 3113 3111 3110 3108 3105 3103 3101 3100 3099 3098 3096 3094 3093 3093 3093 3092 3092 3092 3092 3091 3091 3091 3091 3092 3092 3092 3092 3092 3091 3090 3089 3089 3089 3089 3090 3090 3091 3093 3094 3095 3097 3099 3102 3104 3102 3105 3107 3107 3110 3113 3114 3116 3117 3119 3122 3124 3123 3122 3127 3132 3135 3137 3139 3141 3143 3144 3143 3142 3144 3144 3139 3138 3140 3141 3143 3144 3145 3147 3148 3150 3151 3152 3154 3157 3159 3161 3163
3113 3111 3109 3107 3105 3103 3101 3099 3098 3097 3096 3094 3092 3091 3091 3090 3090 3091 3091 3091 3090 3090 3090 3090 3090 3090 3090 3090 3090 3090 3089 3089 3088 3088 3088 3089 3089 3090 3092 3092 3094 3095 3097 3101 3102 3098 3101 3104 3104 3107 3111 3112 3113 3114 3116 3120 3122 3121 3122 3127 3131 3134 3136 3138 3141 3142 3142 3141 3141 3141 3142 3139 3135 3135 3138 3140 3141 3142 3144 3145 3147 3149 3150 3152 3154 3156 3158 3160
3111 3109 3107 3105 3103 3100 3098 3097 3096 3095 3093 3092 3090 3090 3089 3089 3089 3089 3090 3090 3089 3089 3089 3089 3089 3089 3089 3089 3089 3089 3088 3088 3088 3087 3087 3088 3088 3089 3090 3091 3093 3094 3096 3098 3097 3095 3099 3102 3102 3105 3109 3109 3109 3112 3115 3118 3121 3121 3122 3126 3130 3134 3135 3137 3140 3140 3141 3141 3138 3138 3140 3138 3131 3130 3134 3137 3137 3138 3140 3142 3145 3147 3149 3151 3152 3154 3156 3158
3109 3107 3105 3103 3101 3099 3096 3095 3093 3092 3091 3090 3088 3088 3087 3087 3088 3088 3089 3089 3088 3087 3087 3087 3087 3087 3088 3088 3088 3088 3087 3087 3086 3086 3086 3087 3087 3087 3088 3090 3092 3093 3094 3095 3095 3096 3098 3100 3102 3105 3106 3105 3108 3112 3114 3117 3120 3121 3123 3126 3130 3133 3134 3138 3139 3139 3141 3137 3132 3134 3137 3135 3128 3126 3130 3132 3132 3134 3136 3140 3143 3145 3147 3149 3151 3153 3154 3156
3106 3104 3102 3100 3099 3097 3096 3093 3091 3090 3089 3088 3087 3086 3086 3086 3086 3087 3088 3087 3086 3086 3086 3086 3086 3086 3086 3087 3088 3087 3087 3086 3086 3085 3085 3085 3086 3086 3086 3088 3089 3091 3092 3093 3093 3095 3097 3099 3101 3101 3102 3104 3109 3112 3113 3116 3118 3120 3124 3127 3129 3131 3133 3136 3136 3138 3139 3128 3125 3130 3133 3135 3127 3119 3124 3127 3127 3131 3134 3137 3140 3142 3145 3147 3148 3150 3151 3153
3104 3102 3100 3098 3096 3095 3094 3093 3090 3088 3087 3087 3085 3085 3085 3085 3085 3086 3086 3085 3085 3085 3085 3085 3085 3084 3084 3085 3086 3086 3086 3085 3085 3084 3084 3084 3084 3084 3085 3086 3087 3089 3091 3091 3091 3093 3095 3097 3097 3098 3100 3104 3108 3110 3112 3114 3116 3119 3123 3126 3128 3128 3131 3133 3133 3136 3132 3120 3121 3127 3130 3133 3122 3112 3118 3123 3125 3130 3132 3134 3138 3140 3143 3145 3147 3149 3150 3151
3102 3100 3097 3095 3094 3092 3091 3091 3089 3087 3086 3085 3084 3084 3084 3084 3084 3085 3084 3084 3085 3085 3084 3084 3084 3083 3083 3084 3084 3084 3084 3084 3083 3083 3083 3083 3083 3083 3083 3084 3085 3086 3087 3088 3090 3091 3092 3093 3094 3096 3099 3102 3105 3107 3110 3111 3113 3116 3120 3123 3125 3125 3127 3128 3126 3127 3123 3117 3119 3124 3127 3125 3114 3109 3116 3120 3123 3127 3128 3132 3135 3138 3140 3142 3144 3147 3148 3149
3100 3098 3095 3093 3092 3090 3088 3088 3087 3085 3085 3084 3083 3083 3083 3083 3083 3083 3083 3084 3085 3084 3083 3083 3083 3083 3083 3083 3083 3083 3083 3083 3082 3082 3082 3082 3082 3082 3082 3082 3083 3083 3084 3085 3087 3089 3090 3090 3092 3095 3098 3099 3101 3103 3105 3107 3109 3112 3114 3117 3118 3119 3122 3122 3120 3119 3118 3116 3117 3122 3124 3117 3108 3108 3112 3115 3121 3124 3126 3129 3132 3135 3137 3139 3142 3144 3146 3147
3098 3095 3093 3091 3090 3089 3087 3085 3084 3083 3083 3083 3083 3082 3082 3082 3082 3082 3083 3083 3083 3083 3083 3083 3082 3083 3082 3082 3082 3082 3083 3082 3082 3082 3082 3082 3082 3081 3081 3081 3081 3081 3082 3083 3085 3086 3087 3086 3086 3090 3093 3095 3097 3100 3102 3104 3106 3108 3110 3113 3113 3113 3115 3115 3115 3115 3115 3115 3116 3120 3119 3109 3105 3107 3108 3113 3119 3121 3123 3126 3129 3132 3134 3136 3139 3141 3143 3144
3096 3093 3091 3089 3088 3086 3085 3083 3082 3082 3082 3082 3082 3081 3081 3082 3081 3082 3082 3082 3082 3082 3082 3082 3082 3082 3082 3082 3082 3082 3082 3082 3081 3081 3081 3081 3081 3080 3080 3080 3079 3080 3081 3082 3082 3083 3083 3081 3081 3085 3089 3092 3094 3097 3100 3103 3105 3105 3108 3110 3108 3109 3112 3113 3113 3113 3114 3115 3112 3113 3109 3102 3103 3106 3106 3112 3115 3117 3121 3123 3126 3129 3130 3133 3135 3137 3140 3142
3095 3092 3090 3088 3086 3084 3083 3082 3080 3080 3080 3080 3081 3080 3080 3081 3081 3081 3081 3081 3082 3082 3082 3082 3082 3082 3081 3081 3082 3082 3082 3081 3081 3081 3081 3080 3080 3079 3079 3078 3078 3079 3079 3080 3080 3080 3080 3079 3079 3083 3087 3089 3092 3094 3097 3099 3101 3101 3103 3104 3104 3108 3111 3112 3112 3112 3114 3112 3106 3105 3104 3101 3104 3103 3104 3109 3112 3114 3118 3119 3122 3125 3126 3129 3132 3135 3138 3139
3094 3091 3089 3087 3085 3083 3081 3080 3079 3078 3078 3079 3079 3079 3079 3080 3080 3080 3081 3081 3081 3081 3082 3082 3081 3081 3081 3081 3081 3081 3081 3081 3081 3081 3080 3080 3079 3078 3078 3078 3078 3078 3077 3078 3079 3079 3078 3077 3077 3081 3084 3086 3089 3092 3094 3096 3097 3098 3099 3100 3104 3109 3110 3111 3111 3109 3110 3107 3101 3101 3102 3101 3102 3099 3098 3105 3109 3111 3114 3116 3120 3121 3123 3126 3128 3132 3135 3136
3092 3089 3087 3085 3083 3081 3079 3078 3078 3077 3077 3077 3078 3078 3079 3079 3079 3080 3080 3080 3080 3081 3081 3081 3081 3081 3081 3081 3080 3080 3080 3081 3080 3080 3080 3079 3078 3077 3077 3077 3077 3077 3077 3077 3078 3078 3077 3076 3076 3079 3081 3083 3087 3090 3092 3093 3094 3096 3098 3099 3102 3104 3104 3106 3107 3104 3104 3102 3098 3099 3099 3097 3097 3095 3096 3101 3104 3107 3111 3114 3116 3118 3120 3123 3125 3129 3131 3133
3089 3087 3085 3083 3081 3079 3078 3077 3076 3076 3076 3076 3077 3077 3078 3078 3078 3079 3080 3080 3080 3080 3080 3080 3080 3080 3080 3080 3080 3080 3080 3080 3080 3079 3079 3078 3077 3076 3076 3076 3077 3076 3076 3076 3077 3076 3077 3077 3076 3076 3079 3082 3084 3087 3088 3090 3092 3094 3096 3096 3097 3099 3098 3100 3101 3099 3100 3099 3096 3097 3096 3092 3091 3093 3097 3099 3101 3105 3108 3110 3113 3115 3118 3120 3123 3126 3128 3130
3089 3086 3083 3081 3079 3078 3077 3076 3075 3075 3075 3075 3076 3076 3077 3077 3078 3078 3079 3079 3080 3080 3080 3080 3080 3080 3080 3080 3080 3079 3079 3079 3079 3078 3078 3077 3076 3075 3075 3075 3075 3076 3076 3075 3076 3076 3076 3077 3075 3074 3077 3079 3080 3082 3084 3086 3088 3089 3091 3092 3094 3095 3096 3097 3096 3095 3096 3095 3093 3094 3092 3088 3088 3092 3095 3096 3099 3102 3105 3107 3110 3113 3115 3118 3120 3122 3125 3127
3088 3085 3082 3079 3077 3076 3075 3075 3075 3075 3074 3074 3075 3076 3076 3077 3077 3078 3078 3079 3079 3079 3079 3079 3079 3079 3079 3079 3079 3079 3078 3078 3077 3077 3077 3076 3076 3075 3074 3074 3074 3074 3074 3074 3075 3075 3075 3075 3074 3073 3074 3075 3076 3078 3080 3082 3083 3084 3085 3087 3089 3090 3092 3093 3091 3090 3092 3091 3090 3091 3088 3085 3087 3090 3092 3094 3096 3098 3102 3105 3107 3110 3113 3115 3117 3120 3122 3124
3085 3083 3080 3078 3077 3075 3074 3074 3074 3074 3074 3074 3075 3075 3076 3077 3077 3078 3078 3078 3078 3078 3078 3078 3078 3078 3078 3078 3078 3078 3077 3077 3076 3076 3075 3075 3075 3075 3074 3073 3073 3073 3073 3073 3073 3073 3073 3073 3073 3072 3071 3072 3074 3076 3077 3078 3080 3081 3082 3083 3085 3086 3087 3088 3085 3085 3088 3087 3088 3091 3086 3082 3085 3089 3091 3093 3094 3096 3099 3102 3104 3107 3110 3113 3115 3117 3119 3121
3084 3081 3079 3077 3076 3075 3074 3074 3074 3074 3074 3074 3075 3075 3076 3076 3077 3077 3077 3078 3078 3077 3077 3077 3077 3077 3077 3077 3077 3076 3076 3076 3075 3074 3074 3074 3073 3073 3073 3072 3072 3072 3072 3072 3072 3072 3072 3072 3071 3071 3070 3071 3073 3074 3074 3075 3077 3078 3078 3080 3081 3082 3082 3082 3082 3083 3084 3083 3086 3088 3083 3080 3084 3087 3090 3091 3092 3094 3097 3099 3102 3104 3107 3110 3113 3115 3117 3119
3082 3080 3079 3077 3075 3074 3074 3074 3073 3074 3074 3074 3074 3075 3075 3076 3076 3076 3076 3077 3077 3076 3076 3076 3076 3076 3076 3076 3076 3075 3075 3075 3074 3073 3073 3073 3072 3072 3072 3071 3071 3071 3071 3071 3071 3071 3071 3071 3070 3069 3069 3070 3071 3071 3071 3072 3073 3074 3074 3076 3078 3078 3079 3080 3081 3082 3081 3079 3082 3082 3079 3080 3083 3084 3088 3091 3091 3092 3094 3096 3099 3102 3105 3108 3111 3113 3115 3117
3081 3079 3077 3076 3075 3074 3074 3073 3073 3073 3074 3074 3074 3074 3074 3075 3075 3075 3075 3075 3075 3075 3075 3075 3075 3075 3075 3075 3074 3074 3074 3074 3074 3073 3072 3071 3071 3070 3070 3070 3070 3070 3070 3069 3069 3069 3069 3069 3068 3068 3065 3064 3065 3066 3066 3067 3068 3070 3071 3073 3074 3076 3077 3078 3079 3081 3079 3077 3079 3078 3077 3081 3082 3083 3086 3089 3090 3090 3092 3094 3097 3100 3103 3105 3108 3111 3112 3114
3080 3078 3076 3075 3074 3074 3073 3072 3073 3073 3073 3073 3073 3073 3073 3074 3074 3074 3074 3074 3074 3074 3074 3074 3074 3074 3074 3074 3074 3074 3074 3073 3073 3072 3071 3070 3070 3069 3069 3068 3068 3068 3068 3068 3067 3067 3067 3066 3066 3066 3064 3061 3061 3062 3063 3064 3065 3066 3068 3070 3072 3073 3074 3075 3077 3077 3076 3076 3075 3075 3078 3081 3081 3082 3085 3087 3088 3090 3091 3093 3095 3098 3101 3103 3105 3107 3109 3110
3078 3076 3075 3074 3074 3073 3073 3072 3072 3072 3072 3072 3073 3073 3073 3073 3073 3073 3073 3073 3073 3073 3073 3073 3073 3073 3073 3073 3073 3073 3073 3072 3071 3071 3070 3069 3069 3068 3067 3067 3067 3067 3067 3066 3066 3066 3065 3064 3064 3064 3063 3061 3060 3060 3061 3062 3063 3064 3065 3067 3069 3070 3071 3072 3073 3073 3074 3074 3072 3074 3079 3080 3080 3083 3085 3086 3088 3089 3090 3092 3094 3095 3097 3099 3101 3103 3104 3106
3076 3075 3074 3073 3073 3073 3073 3073 3073 3073 3072 3072 3072 3072 3072 3072 3072 3072 3072 3072 3072 3072 3073 3073 3073 3072 3072 3072 3072 3072 3071 3071 3070 3069 3069 3068 3067 3066 3065 3065 3065 3065 3065 3065 3064 3064 3064 3062 3062 3062 3060 3059 3059 3059 3059 3060 3061 3061 3063 3064 3066 3068 3068 3068 3069 3071 3072 3071 3070 3073 3076 3078 3079 3082 3084 3085 3086 3087 3087 3089 3090 3092 3094 3095 3097 3099 3100 3102
3076 3074 3073 3073 3073 3072 3072 3072 3072 3072 3072 3072 3072 3072 3072 3071 3071 3071 3071 3071 3071 3071 3072 3072 3072 3071 3071 3071 3071 3070 3070 3069 3068 3068 3068 3067 3066 3065 3064 3063 3064 3063 3063 3063 3063 3063 3062 3061 3060 3060 3058 3057 3057 3057 3057 3059 3059 3059 3060 3061 3063 3064 3065 3066 3067 3069 3069 3068 3069 3072 3074 3075 3078 3080 3080 3082 3084 3084 3085 3086 3087 3089 3091 3093 3094 3096 3097 3098
3076 3074 3073 3073 3073 3072 3072 3072 3072 3072 3072 3072 3071 3071 3071 3070 3070 3070 3070 3070 3070 3070 3070 3071 3070 3070 3070 3070 3070 3069 3069 3068 3067 3066 3066 3065 3064 3063 3062 3061 3061 3061 3061 3061 3061 3061 3061 3060 3059 3058 3056 3055 3055 3055 3056 3057 3056 3056 3057 3058 3060 3061 3062 3063 3064 3066 3065 3065 3068 3071 3071 3073 3076 3077 3077 3079 3081 3082 3083 3084 3085 3086 3088 3089 3091 3092 3093 3095
3075 3074 3073 3073 3073 3073 3073 3072 3072 3072 3072 3071 3071 3070 3070 3069 3069 3069 3069 3069 3069 3069 3069 3069 3069 3069 3069 3069 3068 3068 3067 3066 3066 3065 3065 3063 3062 3062 3061 3059 3059 3059 3059 3059 3060 3059 3059 3058 3057 3057 3056 3053 3053 3054 3054 3055 3055 3054 3053 3055 3057 3058 3059 3060 3062 3062 3062 3063 3066 3069 3069 3070 3072 3073 3074 3076 3078 3079 3080 3081 3082 3083 3084 3086 3087 3088 3089 3090
3075 3074 3073 3073 3073 3073 3073 3073 3073 3073 3072 3071 3070 3070 3069 3069 3068 3068 3068 3068 3068 3068 3067 3068 3067 3067 3067 3067 3067 3066 3065 3064 3064 3063 3062 3061 3059 3059 3058 3057 3057 3056 3056 3057 3057 3057 3057 3057 3056 3057 3055 3052 3051 3053 3053 3054 3054 3050 3048 3051 3054 3056 3056 3058 3060 3060 3059 3060 3064 3065 3064 3065 3067 3069 3071 3073 3075 3076 3077 3078 3078 3079 3081 3082 3083 3084 3084 3085